Regional Weather Roundup
Issued by NWS

Home | Current Version | Previous Version | Text Only | Print | Product List | Glossary On
Versions: 1 2 3 4 5 6 7 8 9 10 11 12 13 14 15 16 17 18 19 20 21 22 23 24 25 26 27 28 29 30 31 32 33 34 35 36 37 38 39 40 41 42 43 44 45 46 47 48 49 50
000
ASUS43 KLMK 310002
RWRKY
KENTUCKY REGIONAL WEATHER ROUNDUP
NATIONAL WEATHER SERVICE LOUISVILLE KY
700 PM EST FRI JAN 30 2015

NOTE "FAIR" INDICATES FEW OR NO CLOUDS BELOW 12,000 FEET
WITH NO SIGNIFICANT WEATHER AND/OR OBSTRUCTIONS TO VISIBILITY.

KYZ001>023-026-027-061>063-070>075-310100-
WESTERN AND SOUTH CENTRAL KENTUCKY

CITY           SKY/WX    TMP DP  RH WIND       PRES   REMARKS
PADUCAH        CLEAR     38  19  46 CALM      30.45S
HENDERSON      CLEAR     36  19  51 N3        30.47S
OWENSBORO      CLEAR     33  22  64 NW6       30.47R WCI  27
HOPKINSVILLE   CLEAR     35  21  55 N2        30.44R
BOWLING GREEN  CLEAR     39  18  42 N3        30.45R
GLASGOW        NOT AVBL
$$

KYZ024-025-028>034-038-045-046-053-310100-
NORTH CENTRAL KENTUCKY

CITY           SKY/WX    TMP DP  RH WIND       PRES   REMARKS
LOUISVILLE/SDF CLEAR     34  14  43 NE6       30.46R WCI  29
LOUISVILLE/LOU CLEAR     33  14  45 NE5       30.46S WCI  29
FORT KNOX      CLEAR     30  16  55 N2        30.43R
$$

KYZ035>037-039>044-047>052-055>060-089>105-310100-
NORTHEAST KENTUCKY

CITY           SKY/WX    TMP DP  RH WIND       PRES   REMARKS
LEXINGTON      CLEAR     28  14  55 N6        30.43R WCI  22
COVINGTON      PTCLDY    26  15  63 N6        30.44S WCI  19
FRANKFORT      CLEAR     29  13  51 CALM      30.44R
$$

KYZ054-064>069-076>088-106>120-310100-
SOUTHEAST KENTUCKY

CITY           SKY/WX    TMP DP  RH WIND       PRES   REMARKS
JACKSON        CLEAR     28  14  55 N5        30.40R WCI  23
LONDON         CLEAR     32  12  43 N6        30.41R WCI  26
SOMERSET       NOT AVBL
MIDDLESBORO    NOT AVBL
MONTICELLO     CLEAR     28  19  69 N6        30.45R WCI  22
$$




USA.gov is the U.S. government's official web portal to all federal, state and local government web resources and services.